| time (UTC) | temp C | wind direction | speed KPH | gust KPH | rain 1hr cm | rain 24hr cm | rain mn cm | humidity % | barometer mb |
| 20260506231558 | 8 | 360 | 0.0 | 4.8 | 0.03 | 0.48 | 0.48 | 93 | 1011.4 |
| 20260506230058 | 8 | 360 | 0.0 | 3.2 | 0.03 | 0.48 | 0.48 | 93 | 1011.3 |
| 20260506224550 | 8 | 360 | 0.0 | 3.2 | 0.03 | 0.48 | 0.48 | 93 | 1011.2 |
| 20260506223054 | 8 | 360 | 1.6 | 4.8 | 0.00 | 0.46 | 0.46 | 92 | 1010.7 |
| 20260506221544 | 9 | 360 | 0.0 | 8.0 | 0.00 | 0.46 | 0.46 | 93 | 1010.2 |
| 20260506220042 | 9 | 360 | 0.0 | 4.8 | 0.00 | 0.46 | 0.46 | 93 | 1010.0 |
| 20260506214539 | 10 | 360 | 1.6 | 4.8 | 0.00 | 0.46 | 0.46 | 92 | 1009.9 |
| 20260506213054 | 10 | 360 | 1.6 | 6.4 | 0.03 | 0.46 | 0.46 | 92 | 1009.4 |
| 20260506211547 | 10 | 360 | 1.6 | 8.0 | 0.03 | 0.46 | 0.46 | 92 | 1008.9 |
| 20260506210034 | 10 | 360 | 1.6 | 12.9 | 0.08 | 0.46 | 0.46 | 91 | 1008.7 |
| 20260506204527 | 11 | 360 | 1.6 | 4.8 | 0.08 | 0.46 | 0.46 | 91 | 1008.1 |
| 20260506203029 | 12 | 360 | 1.6 | 4.8 | 0.05 | 0.43 | 0.43 | 90 | 1008.0 |
| 20260506201533 | 13 | 360 | 3.2 | 14.5 | 0.03 | 0.41 | 0.41 | 88 | 1007.3 |
| 20260506200025 | 15 | 360 | 1.6 | 8.0 | 0.00 | 0.38 | 0.38 | 91 | 1006.5 |
| 20260506194526 | 15 | 360 | 1.6 | 9.7 | 0.00 | 0.38 | 0.38 | 92 | 1006.7 |
| 20260506193018 | 15 | 360 | 1.6 | 6.4 | 0.00 | 0.38 | 0.38 | 92 | 1006.7 |
| 20260506191516 | 15 | 360 | 0.0 | 8.0 | 0.00 | 0.38 | 0.38 | 92 | 1006.8 |
| 20260506190015 | 15 | 360 | 1.6 | 4.8 | 0.00 | 0.38 | 0.38 | 92 | 1006.9 |
| 20260506184514 | 15 | 360 | 0.0 | 8.0 | 0.00 | 0.38 | 0.38 | 93 | 1006.9 |
| 20260506183023 | 15 | 360 | 1.6 | 9.7 | 0.00 | 0.38 | 0.38 | 93 | 1007.0 |
| 20260506181513 | 15 | 360 | 3.2 | 8.0 | 0.00 | 0.38 | 0.38 | 93 | 1007.1 |
| 20260506180014 | 15 | 360 | 3.2 | 17.7 | 0.03 | 0.38 | 0.38 | 93 | 1007.3 |
| 20260506174512 | 15 | 360 | 3.2 | 9.7 | 0.03 | 0.38 | 0.38 | 93 | 1007.0 |
| 20260506173010 | 15 | 360 | 1.6 | 8.0 | 0.03 | 0.38 | 0.38 | 94 | 1007.0 |
| 20260506171510 | 15 | 360 | 4.8 | 9.7 | 0.03 | 0.38 | 0.38 | 93 | 1007.2 |
| 20260506170008 | 14 | 360 | 0.0 | 6.4 | 0.00 | 0.36 | 0.36 | 93 | 1007.4 |
| 20260506164508 | 14 | 360 | 3.2 | 8.0 | 0.00 | 0.36 | 0.36 | 93 | 1007.5 |
| 20260506163008 | 14 | 360 | 4.8 | 19.3 | 0.03 | 0.36 | 0.36 | 92 | 1007.5 |
| 20260506161508 | 15 | 360 | 3.2 | 12.9 | 0.05 | 0.36 | 0.36 | 93 | 1007.3 |
| 20260506160006 | 14 | 360 | 4.8 | 12.9 | 0.05 | 0.36 | 0.36 | 93 | 1007.4 |
| 20260506154504 | 14 | 360 | 4.8 | 14.5 | 0.08 | 0.36 | 0.36 | 93 | 1007.5 |
| 20260506153004 | 14 | 360 | 4.8 | 14.5 | 0.05 | 0.33 | 0.33 | 92 | 1007.5 |
| 20260506151505 | 14 | 360 | 3.2 | 9.7 | 0.03 | 0.30 | 0.30 | 93 | 1007.6 |
| 20260506150004 | 14 | 360 | 4.8 | 14.5 | 0.03 | 0.28 | 0.28 | 93 | 1007.5 |
| 20260506144501 | 14 | 360 | 4.8 | 16.1 | 0.08 | 0.28 | 0.28 | 93 | 1007.1 |
| 20260506143108 | 13 | 360 | 3.2 | 12.9 | 0.13 | 0.28 | 0.28 | 93 | 1007.4 |
| 20260506141558 | 13 | 360 | 3.2 | 9.7 | 0.15 | 0.28 | 0.28 | 94 | 1007.4 |
| 20260506140056 | 13 | 360 | 1.6 | 8.0 | 0.23 | 0.28 | 0.28 | 94 | 1007.5 |
| 20260506134553 | 13 | 360 | 0.0 | 1.6 | 0.18 | 0.20 | 0.20 | 93 | 1008.0 |
| 20260506133053 | 13 | 360 | 0.0 | 1.6 | 0.15 | 0.15 | 0.15 | 93 | 1008.2 |
| 20260506131555 | 13 | 360 | 0.0 | 0.0 | 0.13 | 0.13 | 0.13 | 93 | 1008.6 |
| 20260506130059 | 13 | 360 | 0.0 | 3.2 | 0.05 | 0.05 | 0.05 | 93 | 1008.8 |
| 20260506124551 | 13 | 360 | 0.0 | 3.2 | 0.03 | 0.03 | 0.03 | 92 | 1008.6 |
| 20260506123051 | 13 | 360 | 0.0 | 1.6 | 0.00 | 0.00 | 0.00 | 92 | 1008.0 |
| 20260506121553 | 13 | 360 | 0.0 | 1.6 | 0.00 | 0.00 | 0.00 | 92 | 1007.9 |
| 20260506120049 | 13 | 360 | 0.0 | 1.6 | 0.00 | 0.00 | 0.00 | 91 | 1008.0 |
| 20260506114550 | 13 | 360 | 0.0 | 1.6 | 0.00 | 0.00 | 0.00 | 91 | 1008.1 |
| 20260506113046 | 12 | 360 | 0.0 | 1.6 | 0.00 | 0.00 | 0.00 | 90 | 1008.0 |
| 20260506111546 | 12 | 360 | 0.0 | 1.6 | 0.00 | 0.00 | 0.00 | 89 | 1007.9 |
| 20260506110045 | 12 | 360 | 0.0 | 1.6 | 0.00 | 0.00 | 0.00 | 90 | 1008.0 |
| 20260506104543 | 12 | 360 | 0.0 | 1.6 | 0.00 | 0.00 | 0.00 | 89 | 1007.8 |
| 20260506103051 | 12 | 360 | 0.0 | 1.6 | 0.00 | 0.00 | 0.00 | 89 | 1007.2 |
| 20260506101542 | 12 | 360 | 0.0 | 1.6 | 0.00 | 0.00 | 0.00 | 88 | 1007.5 |
| 20260506100042 | 12 | 360 | 0.0 | 1.6 | 0.00 | 0.00 | 0.00 | 87 | 1007.3 |
| 20260506094541 | 12 | 360 | 0.0 | 0.0 | 0.00 | 0.00 | 0.00 | 87 | 1007.6 |
| 20260506093040 | 12 | 360 | 0.0 | 1.6 | 0.00 | 0.00 | 0.00 | 87 | 1007.2 |
| 20260506091539 | 12 | 360 | 0.0 | 1.6 | 0.00 | 0.00 | 0.00 | 87 | 1007.2 |
| 20260506090046 | 12 | 360 | 0.0 | 3.2 | 0.00 | 0.00 | 0.00 | 87 | 1007.5 |
| 20260506084545 | 12 | 360 | 0.0 | 3.2 | 0.00 | 0.00 | 0.00 | 88 | 1007.6 |
| 20260506083035 | 12 | 360 | 0.0 | 1.6 | 0.00 | 0.00 | 0.00 | 88 | 1007.8 |
| 20260506081539 | 12 | 360 | 0.0 | 3.2 | 0.00 | 0.00 | 0.00 | 89 | 1007.6 |
| 20260506073032 | 12 | 360 | 0.0 | 3.2 | 0.00 | 0.00 | 0.00 | 90 | 1007.6 |
| 20260506071530 | 12 | 360 | 0.0 | 1.6 | 0.00 | 0.00 | 0.00 | 90 | 1007.8 |
| 20260506061543 | 11 | 360 | 0.0 | 1.6 | 0.00 | 0.00 | 0.00 | 88 | 1008.4 |
| 20260506044520 | 12 | 360 | 0.0 | 3.2 | 0.00 | 0.00 | 0.00 | 86 | 1008.7 |
| 20260506043026 | 12 | 360 | 0.0 | 1.6 | 0.00 | 0.00 | 0.00 | 85 | 1008.7 |
| 20260506041511 | 12 | 360 | 0.0 | 1.6 | 0.00 | 0.00 | 0.00 | 84 | 1008.9 |
| 20260506040009 | 12 | 360 | 0.0 | 3.2 | 0.00 | 0.00 | 0.00 | 85 | 1009.0 |
| 20260506034508 | 12 | 360 | 0.0 | 1.6 | 0.00 | 0.00 | 0.00 | 84 | 1009.0 |
| 20260506033011 | 13 | 360 | 0.0 | 3.2 | 0.00 | 0.00 | 0.00 | 82 | 1009.1 |
| 20260506031507 | 13 | 360 | 0.0 | 1.6 | 0.00 | 0.00 | 0.00 | 82 | 1009.0 |
| 20260506030006 | 13 | 360 | 0.0 | 3.2 | 0.00 | 0.00 | 0.00 | 81 | 1008.9 |
| 20260506024517 | 14 | 360 | 0.0 | 1.6 | 0.00 | 0.00 | 0.00 | 81 | 1008.9 |
| 20260506023005 | 15 | 360 | 0.0 | 1.6 | 0.00 | 0.00 | 0.00 | 80 | 1009.0 |
| 20260506021504 | 15 | 360 | 0.0 | 1.6 | 0.00 | 0.00 | 0.00 | 79 | 1008.7 |
| 20260506020006 | 16 | 360 | 0.0 | 3.2 | 0.00 | 0.00 | 0.00 | 78 | 1008.8 |
| 20260506014502 | 16 | 360 | 0.0 | 3.2 | 0.00 | 0.00 | 0.00 | 77 | 1008.8 |
| 20260506013002 | 16 | 360 | 0.0 | 3.2 | 0.00 | 0.00 | 0.00 | 76 | 1008.7 |
| 20260506011504 | 16 | 360 | 0.0 | 3.2 | 0.00 | 0.00 | 0.00 | 74 | 1008.6 |
| 20260506010002 | 17 | 360 | 0.0 | 1.6 | 0.00 | 0.00 | 0.00 | 71 | 1008.3 |
| 20260506004505 | 18 | 212 | 0.0 | 3.2 | 0.00 | 0.00 | 0.00 | 67 | 1008.2 |
| 20260506003001 | 18 | 207 | 0.0 | 3.2 | 0.00 | 0.00 | 0.00 | 66 | 1008.0 |
| 20260506001603 | 19 | 205 | 0.0 | 3.2 | 0.00 | 0.00 | 0.00 | 65 | 1008.1 |
| 20260506001502 | 19 | 205 | 0.0 | 3.2 | 0.00 | 0.00 | 0.00 | 65 | 1008.1 |
| 20260506000100 | 20 | 179 | 0.0 | 3.2 | 0.00 | 0.00 | 0.00 | 61 | 1008.1 |
| 20260505234608 | 21 | 178 | 0.0 | 3.2 | 0.00 | 0.00 | 0.00 | 59 | 1007.9 |
| 20260505233059 | 22 | 178 | 0.0 | 1.6 | 0.00 | 0.00 | 0.00 | 51 | 1007.8 |